Flag for Liberia Weather past 2 weeks in Kakata, Liberia

Now
79 °F

Clear.


Feels Like: 83 °F
Forecast: N/A
Wind: No wind

Location: Roberts Field

Current Time: Dec 22, 2014 at 10:01:20 PM

Latest Report: Dec 22, 2014 at 9:30 PM


Visibility: 5 mi

Pressure: 29.92 "Hg

Humidity: 94%

Dew point: 77 °F

Location of KakataLocation

Historic Weather in Kakata — Graph

°F

Kakata temperature yesterday

Maximum temperature yesterday: 90 °F (at 1:00 PM)
Minimum temperature yesterday: 75 °F (at 3:00 AM)
Average temperature yesterday: 81 °F

Past Weeks' High & Low Weather Summary

 TemperatureHumidityPressure
High122 °F (Dec 12, 11:30 AM)100% (Dec 17, 6:00 AM)29.98 "Hg (Dec 17, 6:00 AM)
Low72 °F (Dec 13, 3:00 AM)7% (Dec 12, 11:30 AM)29.77 "Hg (Dec 12, 4:30 PM)
Average81 °F84%29.87 "Hg
* Reported Dec 7 8:00 PM — Dec 22 8:30 PM, Kakata, Weather by CustomWeather, © 2014

Note: Actual official high and low records may vary slightly from our data, if they occured in-between our weather recording intervals... More about our weather records

Advertising

Kakata weather history for previous 24 hours

 ConditionsComfort  
Time TempWeatherWind HumidityBarometerVisibility
8:30 PM
Dec 22
79 °FClear.No wind94%29.89 "Hg5 mi
8:00 PM79 °FClear.No wind94%29.89 "Hg5 mi
7:30 PM81 °FSunny.No wind89%29.86 "Hg5 mi
7:00 PM81 °FSunny.No wind89%29.83 "Hg5 mi
6:30 PM82 °FPassing clouds.No wind84%29.83 "Hg6 mi
6:00 PM82 °FScattered clouds.6 mph84%29.83 "Hg6 mi
5:30 PM84 °FScattered clouds.6 mph74%29.80 "Hg6 mi
5:00 PM86 °FScattered clouds.7 mph70%29.80 "Hg6 mi
4:30 PM88 °FPartly sunny.7 mph66%29.80 "Hg6 mi
3:30 PM88 °FPartly sunny.12 mph66%29.80 "Hg6 mi
3:00 PM90 °FPartly sunny.9 mph63%29.80 "Hg6 mi
2:30 PM90 °FScattered clouds.6 mph59%29.83 "Hg6 mi
2:00 PM90 °FPartly sunny.3 mph59%29.83 "Hg6 mi
1:30 PM90 °FPartly sunny.6 mph55%29.86 "Hg6 mi
1:00 PM90 °FPartly sunny.6 mph59%29.86 "Hg6 mi
12:30 PM88 °FPartly sunny.3 mph62%29.89 "Hg6 mi
12:00 PM88 °FScattered clouds.3 mph62%29.89 "Hg6 mi
11:30 AM86 °FPartly sunny.7 mph70%29.89 "Hg6 mi
11:00 AM84 °FScattered clouds.6 mph74%29.92 "Hg6 mi
10:30 AM84 °FScattered clouds.6 mph74%29.92 "Hg6 mi
10:00 AM82 °FPassing clouds.7 mph84%29.92 "Hg6 mi
9:30 AM81 °FPassing clouds.5 mph84%29.92 "Hg5 mi
9:00 AM77 °FPassing clouds.6 mph94%29.92 "Hg4 mi
8:30 AM77 °FPassing clouds.7 mph94%29.92 "Hg4 mi
8:00 AM77 °FPartly sunny.7 mph94%29.92 "Hg4 mi
7:30 AM75 °FPassing clouds.5 mph94%29.89 "Hg4 mi
7:00 AM75 °FPassing clouds.6 mph94%29.89 "Hg4 mi
6:30 AM75 °FPassing clouds.No wind94%29.89 "Hg4 mi
6:00 AM75 °FPassing clouds.3 mph94%29.86 "Hg5 mi
5:30 AM75 °FPassing clouds.3 mph94%29.86 "Hg5 mi
4:30 AM75 °FPassing clouds.No wind94%29.86 "Hg5 mi
1:00 AM77 °FClear.No wind94%29.89 "Hg5 mi
12:30 AM77 °FClear.No wind94%29.89 "Hg6 mi
12:00 AM77 °FClear.3 mph94%29.92 "Hg6 mi
11:30 PM
Dec 21
77 °FClear.No wind94%29.92 "Hg6 mi
11:00 PM77 °FClear.No wind94%29.92 "Hg6 mi
10:30 PM77 °FClear.No wind94%29.92 "Hg6 mi
Weather by CustomWeather, © 2014

See weather overviewHow to use our weather pages